Location: Newark
(52.3500°N, 175.9667°E)
Time: 15:17:11
(UTC+00:00)

N. Korean satellite - Pass Details

Date: 20 November 2019
Orbit: 456 x 506 km, 97.2° (Epoch: 09 December)

Event Time Altitude Azimuth Distance (km) Brightness Sun altitude
Rises 18:14:09 0° 14° (NNE) 2,623 10.3 -13.7°
Reaches altitude 10° 18:16:16 10° 16° (NNE) 1,730 9.4 -13.4°
Maximum altitude 18:19:59 75° 102° (ESE) 526 6.8 -12.8°
Drops below altitude 10° 18:23:39 10° 189° (S) 1,695 9.4 -12.3°
Sets 18:25:42 0° 191° (S) 2,565 10.3 -12.0°
